This demonstration page uses our WeatherBlox Daily Observations layout. Learn more.

Left ArrowRight Arrow

Hourly Observations for January 28, 2020

Temp ( °F °C ) Dew Point ( °F °C ) Humidity (%) Winds ( mph kmh ) Pressure ( in mb ) Visibility ( mi km ) Precip ( " mm )
12:53 am 00:53 Clear with Mist and Fog 36 2.2 34 1.1 93 93 Calm 29.99 1016 4 6 0.00 0.00
1:01 am 01:01 Clear with Mist and Fog 36 2.2 34 1.1 93 93 Calm 30.03 1017 2 3 0.00 0.00
1:14 am 01:14 Clear with Mist and Fog 37 2.8 35 1.7 93 93 Calm 30.03 1017 4 6 0.00 0.00
1:53 am 01:53 Clear 35 1.7 33 0.6 93 93 Calm 29.99 1016 7 11 0.00 0.00
2:01 am 02:01 Clear with Mist and Fog 35 1.7 33 0.6 93 93 Calm 30.03 1017 2 3 0.00 0.00
2:15 am 02:15 Clear with Fog 35 1.7 33 0.6 93 93 Calm 30.03 1017 1 1 0.00 0.00
2:28 am 02:28 Clear with Mist and Fog 35 1.7 33 0.6 93 93 Calm 30.03 1017 1 2 0.00 0.00
2:38 am 02:38 Clear with Mist and Fog 35 1.7 33 0.6 93 93 Calm 30.03 1017 3 5 0.00 0.00
2:53 am 02:53 Clear 35 1.7 33 0.6 93 93 Calm 30.00 1016 10 16 0.00 0.00
3:53 am 03:53 Clear with Mist and Fog 34 1.1 32 0 92 92 Calm 30.00 1016 6 10 0.00 0.00
4:34 am 04:34 Clear with Mist and Fog 33 0.6 31 -0.6 92 92 Calm 30.03 1017 2 3 0.00 0.00
4:47 am 04:47 Clear with Mist and Fog 32 0 30 -1 93 93 Calm 30.04 1017 3 5 0.00 0.00
4:53 am 04:53 Clear with Light Wintry Mix 32 0 30 -1.1 92 92 Calm 29.99 1016 3 5 0.00 0.00
5:53 am 05:53 Clear 34 1.1 32 0 92 92 Calm 30.01 1016 10 16 0.00 0.00
6:53 am 06:53 Clear 32 0 30 -1.1 92 92 Calm 30.03 1017 7 11 0.00 0.00
7:53 am 07:53 Sunny with Mist and Fog 32 0 30 -1.1 92 92 Calm 30.04 1017 4 6 0.00 0.00
8:53 am 08:53 Sunny with Light Rain 40 4.4 36 2.2 86 86 Calm 30.06 1018 5 8 0.00 0.00
9:53 am 09:53 Sunny 45 7.2 37 2.8 74 74 NW 7 11 30.07 1018 10 16 0.00 0.00
10:53 am 10:53 Sunny 50 10 34 1.1 54 54 NNW 9 15 30.07 1018 10 16 0.00 0.00
11:53 am 11:53 Sunny 54 12.2 35 1.7 49 49 NW 8 13 30.06 1018 10 16 0.00 0.00
12:53 pm 12:53 Sunny 56 13.3 31 -0.6 39 39 NW 10 17 30.02 1017 10 16 0.00 0.00
1:53 pm 13:53 Sunny 57 13.9 30 -1.1 36 36 undefined N/A 30.01 1016 10 16 0.00 0.00
2:53 pm 14:53 Sunny 58 14.4 29 -1.7 33 33 N 13 20 29.98 1015 10 16 0.00 0.00
3:53 pm 15:53 Sunny 58 14.4 31 -0.6 36 36 NW 8 13 29.99 1016 10 16 0.00 0.00
4:53 pm 16:53 Sunny 57 13.9 31 -0.6 37 37 NW 6 9 29.99 1016 10 16 0.00 0.00
5:53 pm 17:53 Sunny 54 12.2 31 -0.6 42 42 NW 3 6 30.00 1016 10 16 0.00 0.00
6:53 pm 18:53 Clear 49 9.4 33 0.6 55 55 Calm 30.01 1016 10 16 0.00 0.00
7:53 pm 19:53 Clear 44 6.7 36 2.2 73 73 Calm 30.02 1017 10 16 0.00 0.00
8:53 pm 20:53 Clear 42 5.6 35 1.7 76 76 Calm 30.03 1017 10 16 0.00 0.00
9:53 pm 21:53 Clear 39 3.9 34 1.1 82 82 Calm 30.03 1017 10 16 0.00 0.00
10:53 pm 22:53 Clear 38 3.3 34 1.1 86 86 Calm 30.03 1017 10 16 0.00 0.00
11:53 pm 23:53 Clear 37 2.8 33 0.6 86 86 Calm 30.03 1017 10 16 0.00 0.00

Powered by AerisWeather